When you browse on this site, cookies collect data to enhance your experience and personalize the content and advertising you see.
Visit our Privacy Policy to learn more. By continuing to use the site, you agree to this use of cookies and data.
  • In France
  • List of Countries
  • For 7 days
  • Water Temperature
  • Weather Map
  • Weather Widgets
  • user-avatar
    Login

    Hourly Weather Barnsley

    Today, 23 August, Friday

    Time Temperature Precipitation Wind Pressure Humidity
    00:00 +17°C° 0 mm 3 mps 756 mmHg 86%
    01:00 +17°C° 0 mm 3 mps 756 mmHg 88%
    02:00 +16°C° 0 mm 3 mps 756 mmHg 89%
    03:00 +16°C° 0 mm 2 mps 756 mmHg 90%
    04:00 +16°C° 0 mm 2 mps 756 mmHg 90%
    05:00 +16°C° 0 mm 2 mps 756 mmHg 90%
    06:00 +16°C° 0 mm 2 mps 756 mmHg 90%
    07:00 +18°C° 0 mm 2 mps 757 mmHg 85%
    08:00 +19°C° 0 mm 2 mps 757 mmHg 79%
    09:00 +21°C° 0 mm 3 mps 757 mmHg 73%
    10:00 +22°C° 0 mm 3 mps 757 mmHg 70%
    11:00 +22°C° 0 mm 3 mps 757 mmHg 66%
    12:00 +24°C° 0 mm 3 mps 756 mmHg 62%
    13:00 +25°C° 0 mm 3 mps 756 mmHg 61%
    14:00 +25°C° 0 mm 3 mps 756 mmHg 60%
    15:00 +25°C° 0 mm 3 mps 756 mmHg 59%
    16:00 +25°C° 0 mm 3 mps 756 mmHg 62%
    17:00 +24°C° 0 mm 3 mps 755 mmHg 65%
    18:00 +24°C° 0 mm 2 mps 755 mmHg 68%
    19:00 +21°C° 0 mm 2 mps 755 mmHg 72%
    20:00 +20°C° 0 mm 2 mps 755 mmHg 75%
    21:00 +20°C° 0 mm 1 mps 755 mmHg 78%
    22:00 +20°C° 0 mm 1 mps 755 mmHg 79%
    23:00 +20°C° 0 mm 1 mps 755 mmHg 80%

    Tomorrow, 24 August, Saturday

    Time Temperature Precipitation Wind Pressure Humidity
    00:00 +19°C° 0 mm 1 mps 754 mmHg 81%
    01:00 +19°C° 0 mm 1 mps 754 mmHg 82%
    02:00 +18°C° 0 mm 1 mps 754 mmHg 84%
    03:00 +18°C° 0 mm 1 mps 754 mmHg 85%
    04:00 +18°C° 0 mm 1 mps 754 mmHg 83%
    05:00 +16°C° 0 mm 1 mps 754 mmHg 80%
    06:00 +16°C° 0 mm 1 mps 754 mmHg 78%
    07:00 +18°C° 0 mm 2 mps 754 mmHg 70%
    08:00 +19°C° 0 mm 2 mps 754 mmHg 62%
    09:00 +21°C° 0 mm 2 mps 754 mmHg 54%
    10:00 +22°C° 0 mm 3 mps 754 mmHg 50%
    11:00 +25°C° 0 mm 3 mps 753 mmHg 46%
    12:00 +26°C° 0 mm 3 mps 753 mmHg 42%
    13:00 +26°C° 0 mm 3 mps 753 mmHg 41%
    14:00 +26°C° 0 mm 3 mps 753 mmHg 41%
    15:00 +27°C° 0 mm 3 mps 752 mmHg 41%
    16:00 +26°C° 0 mm 3 mps 752 mmHg 45%
    17:00 +26°C° 0 mm 2 mps 752 mmHg 48%
    18:00 +25°C° 0 mm 2 mps 751 mmHg 52%
    19:00 +24°C° 0 mm 2 mps 752 mmHg 56%
    20:00 +22°C° 0 mm 1 mps 752 mmHg 60%
    21:00 +21°C° 0 mm 1 mps 752 mmHg 63%
    22:00 +21°C° 0 mm 1 mps 752 mmHg 65%
    23:00 +20°C° 0 mm 1 mps 752 mmHg 67%

    Day after tomorrow, 25 August, Sunday

    Time Temperature Precipitation Wind Pressure Humidity
    00:00 +20°C° 0 mm 1 mps 752 mmHg 70%
    01:00 +20°C° 0 mm 1 mps 752 mmHg 71%
    02:00 +19°C° 0 mm 1 mps 751 mmHg 73%
    03:00 +19°C° 0 mm 1 mps 751 mmHg 74%
    04:00 +19°C° 0 mm 1 mps 751 mmHg 74%
    05:00 +19°C° 0 mm 1 mps 751 mmHg 74%
    06:00 +19°C° 0 mm 1 mps 751 mmHg 74%
    07:00 +20°C° 0 mm 1 mps 751 mmHg 69%
    08:00 +22°C° 0 mm 1 mps 752 mmHg 64%
    09:00 +23°C° 0 mm 1 mps 752 mmHg 59%
    10:00 +25°C° 0 mm 1 mps 752 mmHg 55%
    11:00 +26°C° 0 mm 2 mps 752 mmHg 50%
    12:00 +27°C° 0 mm 2 mps 752 mmHg 46%
    13:00 +28°C° 0 mm 2 mps 752 mmHg 45%
    14:00 +28°C° 0 mm 3 mps 751 mmHg 43%
    15:00 +29°C° 0 mm 3 mps 751 mmHg 42%
    16:00 +28°C° 0 mm 3 mps 751 mmHg 45%
    17:00 +27°C° 0 mm 2 mps 751 mmHg 48%
    18:00 +27°C° 0 mm 2 mps 751 mmHg 52%
    19:00 +25°C° 0 mm 2 mps 752 mmHg 57%
    20:00 +24°C° 0 mm 2 mps 752 mmHg 62%
    21:00 +21°C° 0 mm 2 mps 752 mmHg 67%
    22:00 +21°C° 0 mm 2 mps 752 mmHg 69%
    23:00 +20°C° 0 mm 2 mps 752 mmHg 72%

    26 August, Monday

    Time Temperature Precipitation Wind Pressure Humidity
    00:00 +20°C° 0 mm 1 mps 752 mmHg 74%
    01:00 +20°C° 0 mm 1 mps 752 mmHg 76%
    02:00 +20°C° 0 mm 1 mps 752 mmHg 77%
    03:00 +19°C° 0 mm 1 mps 752 mmHg 79%
    04:00 +19°C° 0 mm 1 mps 752 mmHg 79%
    05:00 +19°C° 0 mm 1 mps 752 mmHg 79%
    06:00 +19°C° 0 mm 1 mps 752 mmHg 79%
    07:00 +21°C° 0 mm 1 mps 752 mmHg 72%
    08:00 +22°C° 0 mm 1 mps 752 mmHg 65%
    09:00 +24°C° 0 mm 1 mps 752 mmHg 58%
    10:00 +25°C° 0 mm 1 mps 752 mmHg 54%
    11:00 +26°C° 0 mm 2 mps 752 mmHg 50%
    12:00 +27°C° 0 mm 2 mps 752 mmHg 46%
    13:00 +28°C° 0 mm 2 mps 752 mmHg 47%
    14:00 +28°C° 0 mm 3 mps 751 mmHg 48%
    15:00 +28°C° 0 mm 3 mps 751 mmHg 49%
    16:00 +27°C° 0 mm 3 mps 751 mmHg 53%
    17:00 +27°C° 0 mm 2 mps 751 mmHg 57%
    18:00 +26°C° 0 mm 2 mps 751 mmHg 61%
    19:00 +25°C° 0 mm 2 mps 751 mmHg 65%
    20:00 +24°C° 0 mm 1 mps 751 mmHg 68%
    21:00 +23°C° 0 mm 1 mps 751 mmHg 71%
    22:00 +22°C° 0 mm 1 mps 751 mmHg 72%
    23:00 +22°C° 0 mm 1 mps 751 mmHg 73%

    27 August, Tuesday

    Time Temperature Precipitation Wind Pressure Humidity
    00:00 +19°C° 0 mm 0 mps 751 mmHg 73%
    01:00 +19°C° 0 mm 0 mps 750 mmHg 74%
    02:00 +19°C° 0 mm 0 mps 750 mmHg 75%
    03:00 +20°C° 0 mm 1 mps 750 mmHg 77%
    04:00 +18°C° 0 mm 0 mps 750 mmHg 77%
    05:00 +18°C° 0 mm 0 mps 750 mmHg 78%
    06:00 +18°C° 0 mm 0 mps 750 mmHg 78%
    07:00 +19°C° 0 mm 0 mps 749 mmHg 73%
    08:00 +21°C° 0 mm 0 mps 749 mmHg 69%
    09:00 +24°C° 0 mm 1 mps 749 mmHg 64%
    10:00 +25°C° 0.2 mm 1 mps 749 mmHg 61%
    11:00 +25°C° 0.2 mm 1 mps 749 mmHg 59%
    12:00 +26°C° 0.2 mm 2 mps 748 mmHg 56%
    13:00 +26°C° 0.5 mm 2 mps 748 mmHg 59%
    14:00 +25°C° 0.5 mm 3 mps 747 mmHg 63%
    15:00 +25°C° 0.5 mm 4 mps 747 mmHg 66%
    16:00 +23°C° 0.2 mm 4 mps 747 mmHg 68%
    17:00 +21°C° 0.2 mm 5 mps 747 mmHg 70%
    18:00 +20°C° 0.2 mm 5 mps 747 mmHg 72%
    19:00 +19°C° 0 mm 4 mps 747 mmHg 75%
    20:00 +18°C° 0 mm 4 mps 747 mmHg 77%
    21:00 +17°C° 0 mm 3 mps 747 mmHg 80%
    22:00 +17°C° 0 mm 3 mps 747 mmHg 81%
    23:00 +16°C° 0 mm 3 mps 748 mmHg 81%

    28 August, Wednesday

    Time Temperature Precipitation Wind Pressure Humidity
    00:00 +16°C° 0 mm 3 mps 748 mmHg 82%
    01:00 +17°C° 0 mm 3 mps 748 mmHg 82%
    02:00 +17°C° 0 mm 3 mps 748 mmHg 82%
    03:00 +17°C° 0 mm 4 mps 748 mmHg 81%
    04:00 +17°C° 0 mm 4 mps 748 mmHg 82%
    05:00 +15°C° 0 mm 4 mps 748 mmHg 83%
    06:00 +15°C° 0 mm 4 mps 749 mmHg 84%
    07:00 +15°C° 0 mm 4 mps 749 mmHg 78%
    08:00 +16°C° 0 mm 5 mps 749 mmHg 73%
    09:00 +16°C° 0 mm 5 mps 750 mmHg 67%
    10:00 +16°C° 0 mm 5 mps 750 mmHg 62%
    11:00 +16°C° 0 mm 5 mps 750 mmHg 57%
    12:00 +17°C° 0 mm 5 mps 750 mmHg 52%
    13:00 +17°C° 0 mm 5 mps 750 mmHg 52%
    14:00 +18°C° 0 mm 4 mps 751 mmHg 51%
    15:00 +18°C° 0 mm 4 mps 751 mmHg 51%
    16:00 +18°C° 0 mm 4 mps 751 mmHg 54%
    17:00 +17°C° 0 mm 3 mps 751 mmHg 56%
    18:00 +17°C° 0 mm 3 mps 751 mmHg 59%
    19:00 +16°C° 0 mm 2 mps 752 mmHg 61%
    20:00 +15°C° 0 mm 2 mps 752 mmHg 62%
    21:00 +14°C° 0 mm 1 mps 752 mmHg 64%
    22:00 +14°C° 0 mm 2 mps 752 mmHg 65%
    23:00 +14°C° 0 mm 2 mps 752 mmHg 66%
    Show more